TimeEDT,TemperatureF,Dew PointF,Humidity,Sea Level PressureIn,VisibilityMPH,Wind Direction,Wind SpeedMPH,Gust SpeedMPH,PrecipitationIn,Events,Conditions,WindDirDegrees,DateUTC
12:17 AM,68.0,66.2,94,29.81,4.0,Calm,Calm,-,N/A,,Mostly Cloudy,0,2013-05-24 04:17:00
12:37 AM,68.0,66.2,94,29.81,5.0,Calm,Calm,-,N/A,Thunderstorm,Unknown,0,2013-05-24 04:37:00
12:57 AM,68.0,66.2,94,29.80,5.0,Calm,Calm,-,N/A,,Light Drizzle,0,2013-05-24 04:57:00
1:17 AM,68.0,66.2,94,29.80,5.0,South,3.5,-,N/A,,Light Drizzle,190,2013-05-24 05:17:00
1:38 AM,69.8,66.2,88,29.79,7.0,SSW,4.6,-,N/A,,Scattered Clouds,210,2013-05-24 05:38:00
1:57 AM,69.8,66.2,88,29.78,10.0,SW,4.6,-,N/A,,Mostly Cloudy,230,2013-05-24 05:57:00
2:17 AM,69.8,66.2,88,29.78,10.0,WSW,5.8,-,N/A,,Scattered Clouds,240,2013-05-24 06:17:00
2:37 AM,69.8,66.2,88,29.77,10.0,WSW,4.6,-,N/A,,Scattered Clouds,240,2013-05-24 06:37:00
2:57 AM,69.8,66.2,88,29.77,10.0,WSW,6.9,-,N/A,,Scattered Clouds,240,2013-05-24 06:57:00
3:17 AM,69.8,66.2,88,29.77,10.0,WSW,9.2,-,0.01,Rain,Light Rain,250,2013-05-24 07:17:00
3:37 AM,69.8,66.2,88,29.76,10.0,West,8.1,-,0.03,Rain,Rain,260,2013-05-24 07:37:00
3:57 AM,69.8,66.2,88,29.76,10.0,West,5.8,-,N/A,,Drizzle,270,2013-05-24 07:57:00
4:17 AM,69.8,66.2,88,29.75,10.0,WSW,4.6,-,N/A,,Light Drizzle,250,2013-05-24 08:17:00
4:37 AM,69.8,66.2,88,29.75,10.0,West,5.8,-,N/A,,Mostly Cloudy,260,2013-05-24 08:37:00
4:57 AM,69.8,66.2,88,29.76,10.0,WSW,6.9,-,N/A,,Mostly Cloudy,240,2013-05-24 08:57:00
5:17 AM,69.8,66.2,88,29.76,10.0,West,4.6,-,N/A,,Overcast,270,2013-05-24 09:17:00
5:37 AM,69.8,66.2,88,29.76,10.0,WNW,4.6,-,N/A,,Overcast,290,2013-05-24 09:37:00
5:57 AM,69.8,66.2,88,29.77,10.0,WSW,3.5,-,N/A,,Mostly Cloudy,250,2013-05-24 09:57:00
6:17 AM,69.8,66.2,88,29.78,7.0,West,4.6,-,N/A,,Mostly Cloudy,270,2013-05-24 10:17:00
6:37 AM,69.8,66.2,88,29.78,7.0,Calm,Calm,-,N/A,,Overcast,0,2013-05-24 10:37:00
6:57 AM,69.8,66.2,88,29.79,10.0,West,4.6,-,N/A,,Scattered Clouds,270,2013-05-24 10:57:00
7:17 AM,69.8,66.2,88,29.79,10.0,West,3.5,-,N/A,,Clear,270,2013-05-24 11:17:00
7:38 AM,71.6,66.2,83,29.80,10.0,WNW,6.9,-,N/A,,Mostly Cloudy,290,2013-05-24 11:38:00
7:57 AM,71.6,64.4,78,29.81,10.0,WNW,9.2,-,N/A,,Overcast,300,2013-05-24 11:57:00
8:17 AM,69.8,62.6,78,29.81,10.0,NW,11.5,-,N/A,,Scattered Clouds,310,2013-05-24 12:17:00
8:37 AM,69.8,62.6,78,29.81,10.0,WNW,4.6,-,N/A,,Clear,300,2013-05-24 12:37:00
8:57 AM,69.8,62.6,78,29.80,10.0,NNW,6.9,-,N/A,,Scattered Clouds,330,2013-05-24 12:57:00
9:17 AM,69.8,62.6,78,29.82,10.0,WNW,11.5,17.3,N/A,,Scattered Clouds,300,2013-05-24 13:17:00
9:36 AM,69.8,62.6,78,29.82,10.0,NW,11.5,17.3,N/A,,Scattered Clouds,310,2013-05-24 13:36:00
9:56 AM,69.8,62.6,78,29.82,10.0,NNW,12.7,18.4,N/A,,Scattered Clouds,340,2013-05-24 13:56:00
10:16 AM,71.6,60.8,69,29.83,10.0,NNW,12.7,19.6,N/A,,Scattered Clouds,330,2013-05-24 14:16:00
10:36 AM,71.6,60.8,69,29.84,10.0,NW,15.0,23.0,N/A,,Overcast,320,2013-05-24 14:36:00
10:56 AM,69.8,60.8,73,29.84,10.0,NNW,11.5,24.2,N/A,,Overcast,330,2013-05-24 14:56:00
11:16 AM,66.2,57.2,73,29.86,10.0,NNW,17.3,27.6,N/A,,Overcast,330,2013-05-24 15:16:00
11:36 AM,64.4,53.6,68,29.88,10.0,NNW,18.4,32.2,N/A,,Overcast,330,2013-05-24 15:36:00
11:56 AM,62.6,53.6,72,29.88,10.0,NW,17.3,28.8,N/A,,Overcast,320,2013-05-24 15:56:00
12:16 PM,60.8,53.6,77,29.89,10.0,NNW,17.3,32.2,N/A,,Overcast,330,2013-05-24 16:16:00
12:37 PM,60.8,53.6,77,29.90,10.0,NW,17.3,32.2,N/A,,Overcast,320,2013-05-24 16:37:00
12:56 PM,59.0,51.8,77,29.91,10.0,NW,12.7,29.9,N/A,,Light Drizzle,310,2013-05-24 16:56:00
1:18 PM,57.2,53.6,88,29.91,7.0,NW,13.8,24.2,0.03,Rain,Rain,320,2013-05-24 17:18:00
1:36 PM,57.2,53.6,88,29.91,10.0,NW,13.8,24.2,0.08,Rain,Rain,320,2013-05-24 17:36:00
1:56 PM,57.2,53.6,88,29.91,10.0,NW,12.7,20.7,N/A,Rain,Light Rain,320,2013-05-24 17:56:00
2:17 PM,57.2,53.6,88,29.91,10.0,NW,18.4,27.6,0.01,Rain,Rain,320,2013-05-24 18:17:00
2:37 PM,57.2,51.8,82,29.92,10.0,NW,15.0,24.2,0.01,Rain,Light Rain,320,2013-05-24 18:37:00
2:56 PM,57.2,51.8,82,29.93,10.0,NW,18.4,25.3,N/A,,Light Drizzle,320,2013-05-24 18:56:00
3:19 PM,57.2,50.0,77,29.93,10.0,NW,18.4,28.8,N/A,Rain,Light Rain,320,2013-05-24 19:19:00
3:37 PM,57.2,48.2,72,29.93,10.0,NNW,12.7,26.5,N/A,,Overcast,330,2013-05-24 19:37:00
3:56 PM,57.2,48.2,72,29.94,10.0,NW,17.3,26.5,N/A,,Overcast,320,2013-05-24 19:56:00
4:17 PM,57.2,48.2,72,29.95,10.0,NNW,12.7,23.0,N/A,,Overcast,330,2013-05-24 20:17:00
4:37 PM,57.2,46.4,67,29.95,10.0,NW,20.7,28.8,N/A,,Overcast,310,2013-05-24 20:37:00
4:57 PM,57.2,46.4,67,29.96,10.0,NW,16.1,32.2,N/A,,Overcast,320,2013-05-24 20:57:00
5:17 PM,59.0,44.6,59,29.97,10.0,NW,11.5,24.2,N/A,,Overcast,320,2013-05-24 21:17:00
5:36 PM,57.2,44.6,63,29.98,10.0,NW,19.6,29.9,N/A,,Overcast,310,2013-05-24 21:36:00
5:57 PM,57.2,44.6,63,29.98,10.0,NNW,12.7,19.6,N/A,,Overcast,330,2013-05-24 21:57:00
6:17 PM,57.2,44.6,63,29.99,10.0,NW,16.1,23.0,N/A,,Overcast,320,2013-05-24 22:17:00
6:37 PM,57.2,44.6,63,30.00,10.0,NW,18.4,29.9,N/A,,Overcast,320,2013-05-24 22:37:00
6:57 PM,57.2,42.8,59,30.01,10.0,NNW,15.0,24.2,N/A,,Overcast,330,2013-05-24 22:57:00
7:16 PM,59.0,42.8,55,30.01,10.0,NW,11.5,28.8,N/A,,Overcast,320,2013-05-24 23:16:00
7:38 PM,57.2,42.8,59,30.02,10.0,NW,17.3,28.8,N/A,,Overcast,320,2013-05-24 23:38:00
7:57 PM,57.2,42.8,59,30.02,10.0,NW,16.1,28.8,N/A,,Overcast,310,2013-05-24 23:57:00
8:17 PM,57.2,42.8,59,30.03,10.0,NW,9.2,25.3,N/A,,Overcast,320,2013-05-25 00:17:00
8:37 PM,57.2,42.8,59,30.04,10.0,NW,9.2,34.5,N/A,,Overcast,320,2013-05-25 00:37:00
8:56 PM,57.2,42.8,59,30.05,10.0,NW,19.6,31.1,N/A,,Overcast,310,2013-05-25 00:56:00
9:17 PM,57.2,42.8,59,30.05,10.0,NW,11.5,32.2,N/A,,Overcast,320,2013-05-25 01:17:00
9:37 PM,57.2,41.0,55,30.06,10.0,NNW,17.3,31.1,N/A,,Overcast,330,2013-05-25 01:37:00
9:56 PM,57.2,41.0,55,30.07,10.0,NW,12.7,25.3,N/A,,Overcast,310,2013-05-25 01:56:00
10:16 PM,57.2,39.2,51,30.08,10.0,NW,20.7,28.8,N/A,,Overcast,310,2013-05-25 02:16:00
10:37 PM,57.2,39.2,51,30.09,10.0,NW,15.0,33.4,N/A,,Overcast,320,2013-05-25 02:37:00
10:57 PM,57.2,39.2,51,30.09,10.0,NNW,15.0,31.1,N/A,,Overcast,340,2013-05-25 02:57:00
11:16 PM,57.2,39.2,51,30.09,10.0,NW,19.6,28.8,N/A,,Overcast,310,2013-05-25 03:16:00
11:36 PM,57.2,39.2,51,30.09,10.0,NW,15.0,28.8,N/A,,Overcast,320,2013-05-25 03:36:00
11:57 PM,57.2,37.4,48,30.09,10.0,NW,18.4,25.3,N/A,,Overcast,320,2013-05-25 03:57:00